CW4588 Weather Reports


time (UTC)temp
C
wind
direction
speed
KPH
gust
KPH
rain 1hr
cm
rain 24hr
cm
rain mn
cm
humidity
%
barometer
mb
20260906085522 11 336 6.4 0.0 0.00 0.00 0.00 64 1004.8
20260906085037 11 331 9.7 0.0 0.00 0.00 0.00 64 1004.8
20260906084529 11 319 9.7 0.0 0.00 0.00 0.00 61 1004.8
20260906084033 11 342 9.7 0.0 0.00 0.00 0.00 63 1004.6
20260906083537 11 286 11.3 0.0 0.00 0.00 0.00 63 1004.6
20260906083032 11 23 9.7 0.0 0.00 0.00 0.00 66 1004.6
20260906082537 11 6 8.0 0.0 0.00 0.00 0.00 64 1004.6
20260906082026 11 355 9.7 0.0 0.00 0.00 0.00 64 1004.6
20260906081531 11 7 9.7 0.0 0.00 0.00 0.00 64 1004.6
20260906081028 11 343 11.3 0.0 0.00 0.00 0.00 64 1004.5
20260906080541 11 349 11.3 0.0 0.00 0.00 0.00 64 1004.5
20260906080029 11 356 11.3 0.0 0.00 0.00 0.00 63 1004.5
20260906075534 11 20 11.3 0.0 0.00 0.00 0.00 64 1004.1
20260906075048 11 311 11.3 0.0 0.00 0.00 0.00 65 1004.1
20260906074537 11 23 12.9 0.0 0.00 0.00 0.00 66 1004.1
20260906074041 11 345 11.3 0.0 0.00 0.00 0.00 65 1004.1
20260906073536 11 16 9.7 0.0 0.00 0.00 0.00 68 1004.1
20260906073052 10 22 9.7 0.0 0.00 0.00 0.00 67 1004.1
20260906072556 10 353 8.0 0.0 0.00 0.00 0.00 71 1004.0
20260906072048 10 301 8.0 0.0 0.00 0.00 0.00 71 1004.0
20260906071553 10 276 6.4 0.0 0.00 0.00 0.00 71 1004.0
20260906071029 10 307 6.4 0.0 0.00 0.00 0.00 72 1003.9
20260906070540 10 336 6.4 0.0 0.00 0.00 0.00 73 1003.9
20260906070048 10 353 8.0 0.0 0.00 0.00 0.00 73 1003.9
20260906065541 10 315 8.0 0.0 0.00 0.00 0.00 73 1003.6
20260906065028 10 322 6.4 0.0 0.00 0.00 0.00 74 1003.6
20260906064551 10 338 4.8 0.0 0.00 0.00 0.00 76 1003.6
20260906064046 10 336 4.8 0.0 0.00 0.00 0.00 76 1003.4
20260906063531 10 332 4.8 0.0 0.00 0.00 0.00 76 1003.4
20260906063039 10 353 6.4 0.0 0.00 0.00 0.00 76 1003.4
20260906062541 10 342 4.8 0.0 0.00 0.00 0.00 77 1003.2
20260906062031 9 311 3.2 0.0 0.00 0.00 0.00 80 1003.2
20260906061534 9 342 3.2 0.0 0.00 0.00 0.00 82 1003.2
20260906061026 8 13 1.6 0.0 0.00 0.00 0.00 84 1003.1
20260906060529 8 14 3.2 0.0 0.00 0.00 0.00 86 1003.1
20260906060036 8 305 1.6 0.0 0.00 0.00 0.00 88 1003.1
20260906055535 8 339 1.6 0.0 0.00 0.00 0.00 88 1002.9
20260906055035 7 329 0.0 0.0 0.00 0.00 0.00 90 1002.9
20260906054526 7 341 0.0 0.0 0.00 0.00 0.00 91 1002.9
20260906054031 7 348 0.0 0.0 0.00 0.00 0.00 91 1002.8
20260906053534 7 308 0.0 0.0 0.00 0.00 0.00 92 1002.8
20260906053044 7 324 0.0 0.0 0.00 0.00 0.00 92 1002.8
20260906052527 7 342 0.0 0.0 0.00 0.00 0.00 93 1002.6
20260906052107 7 331 0.0 0.0 0.00 0.00 0.00 93 1002.6
20260906051525 7 328 0.0 0.0 0.00 0.00 0.00 94 1002.6
20260906051030 7 331 0.0 0.0 0.00 0.00 0.00 94 1002.5
20260906050545 7 345 0.0 0.0 0.00 0.00 0.00 94 1002.5
20260906050034 6 335 0.0 0.0 0.00 0.00 0.00 94 1002.4
20260906045533 6 332 0.0 0.0 0.00 0.00 0.00 95 1002.4
20260906045053 6 336 0.0 0.0 0.00 0.00 0.00 95 1002.4
20260906044537 6 311 0.0 0.0 0.00 0.00 0.00 95 1002.4
20260906044024 6 336 0.0 0.0 0.00 0.00 0.00 96 1002.1
20260906043534 6 328 0.0 0.0 0.00 0.00 0.00 96 1002.1
20260906043038 6 328 0.0 0.0 0.00 0.00 0.00 96 1002.1
20260906042520 6 295 0.0 0.0 0.00 0.00 0.00 96 1001.9
20260906042036 6 263 0.0 0.0 0.00 0.00 0.00 97 1001.9
20260906041536 6 310 0.0 0.0 0.00 0.00 0.00 97 1001.9
20260906041020 6 262 0.0 0.0 0.00 0.00 0.00 98 1001.8
20260906040604 6 293 0.0 0.0 0.00 0.00 0.00 98 1001.8
20260906040053 6 278 0.0 0.0 0.00 0.00 0.00 99 1001.8
20260906035547 6 297 0.0 0.0 0.00 0.00 0.00 99 1001.6
20260906035031 6 304 0.0 0.0 0.00 0.00 0.00 99 1001.6
20260906034546 6 314 0.0 0.0 0.00 0.00 0.00 99 1001.6
20260906034028 6 342 0.0 0.0 0.00 0.00 0.00 99 1001.4
20260906033533 6 325 0.0 0.0 0.00 0.00 0.00 99 1001.4
20260906033030 6 315 0.0 0.0 0.00 0.00 0.00 99 1001.4
20260906032525 6 312 0.0 0.0 0.00 0.00 0.00 99 1001.4
20260906032031 6 301 0.0 0.0 0.00 0.00 0.00 99 1001.4
20260906031525 6 291 0.0 0.0 0.00 0.00 0.00 99 1001.4
20260906031027 6 314 0.0 0.0 0.00 0.00 0.00 99 1001.3
20260906030534 6 321 0.0 0.0 0.00 0.00 0.00 99 1001.3
20260906030050 6 274 0.0 0.0 0.00 0.00 0.00 99 1001.4
20260906025530 6 273 0.0 0.0 0.00 0.00 0.00 99 1001.2
20260906025046 6 273 0.0 0.0 0.00 0.00 0.00 99 1001.2
20260906024532 6 273 0.0 0.0 0.00 0.00 0.00 99 1001.2
20260906024043 6 300 0.0 0.0 0.00 0.00 0.00 99 1001.0
20260906023525 6 335 0.0 0.0 0.00 0.00 0.00 99 1001.0
20260906023035 6 336 0.0 0.0 0.00 0.00 0.00 99 1001.0
20260906022540 7 307 0.0 0.0 0.00 0.00 0.00 99 1001.0
20260906022027 7 324 0.0 0.0 0.00 0.00 0.00 99 1001.0
20260906021538 7 308 0.0 0.0 0.00 0.00 0.00 99 1001.0
20260906021021 7 317 0.0 0.0 0.00 0.00 0.00 100 1000.9
20260906020527 7 326 0.0 0.0 0.00 0.00 0.00 100 1000.9
20260906020105 7 321 0.0 0.0 0.00 0.00 0.00 100 1000.9
20260906015528 7 334 0.0 0.0 0.00 0.00 0.00 100 1000.8
20260906015105 7 342 0.0 0.0 0.00 0.00 0.00 100 1000.8
20260906014540 7 329 0.0 0.0 0.00 0.00 0.00 100 1000.8
20260906014045 7 342 0.0 0.0 0.00 0.00 0.00 100 1000.6
20260906013527 7 334 0.0 0.0 0.00 0.00 0.00 100 1000.6
20260906013028 7 293 0.0 0.0 0.00 0.00 0.00 100 1000.6
20260906012558 7 341 0.0 0.0 0.00 0.00 0.00 99 1000.4
20260906012043 7 308 0.0 0.0 0.00 0.00 0.00 99 1000.4
20260906011534 7 305 0.0 0.0 0.00 0.00 0.00 99 1000.4
20260906011039 7 290 0.0 0.0 0.00 0.00 0.00 99 1000.3
20260906010525 7 294 0.0 0.0 0.00 0.00 0.00 99 1000.3
20260906010044 7 338 0.0 0.0 0.00 0.00 0.00 99 1000.3
20260906005549 7 342 0.0 0.0 0.00 0.00 0.00 99 1000.3
20260906005031 6 321 0.0 0.0 0.00 0.00 0.00 98 1000.3
20260906004526 6 310 0.0 0.0 0.00 0.00 0.00 97 1000.3
20260906004034 6 310 0.0 0.0 0.00 0.00 0.00 97 1000.1
20260906003530 6 300 0.0 0.0 0.00 0.00 0.00 97 1000.1
20260906003037 6 239 0.0 0.0 0.00 0.00 0.00 96 1000.1
20260906002537 6 259 0.0 0.0 0.00 0.00 0.00 96 1000.0
20260906002046 6 269 0.0 0.0 0.00 0.00 0.00 95 1000.0
20260906001531 6 260 0.0 0.0 0.00 0.00 0.00 95 1000.0
20260906001030 6 256 0.0 0.0 0.00 0.00 0.00 95 1000.0
20260906000540 6 298 0.0 0.0 0.00 0.00 0.00 95 1000.0
20260906000022 6 298 0.0 0.0 0.00 0.00 0.00 95 1000.0
20260905235524 7 298 0.0 0.0 0.00 0.00 0.00 95 1000.0
20260905235027 7 298 0.0 0.0 0.00 0.00 0.00 95 1000.0
20260905234536 7 298 0.0 0.0 0.00 0.00 0.00 95 1000.0
20260905234037 7 298 0.0 0.0 0.00 0.00 0.00 95 999.9
20260905233520 7 298 0.0 0.0 0.00 0.00 0.00 96 999.9
20260905233026 7 298 0.0 0.0 0.00 0.00 0.00 96 999.9
20260905232527 7 298 0.0 0.0 0.00 0.00 0.00 96 999.8
20260905232040 8 298 0.0 0.0 0.00 0.00 0.00 96 999.8
20260905231535 8 298 0.0 0.0 0.00 0.00 0.00 96 999.8
20260905231020 8 298 0.0 0.0 0.00 0.00 0.00 96 999.8
20260905230558 8 298 0.0 0.0 0.00 0.00 0.00 96 999.8
20260905230037 8 298 0.0 0.0 0.00 0.00 0.00 96 999.8
20260905225545 8 284 0.0 0.0 0.00 0.00 0.00 96 999.8
20260905225048 8 284 0.0 0.0 0.00 0.00 0.00 96 999.8
20260905224537 8 326 0.0 0.0 0.00 0.00 0.00 96 999.8
20260905224035 8 311 0.0 0.0 0.00 0.00 0.00 96 999.6
20260905223537 8 311 0.0 0.0 0.00 0.00 0.00 96 999.6
20260905223038 8 311 0.0 0.0 0.00 0.00 0.00 95 999.6
20260905222550 8 311 0.0 0.0 0.00 0.00 0.00 95 999.5
20260905222034 8 311 0.0 0.0 0.00 0.00 0.00 95 999.5
20260905221551 8 311 0.0 0.0 0.00 0.00 0.00 95 999.5
20260905221032 8 300 0.0 0.0 0.00 0.00 0.00 95 999.4
20260905220537 8 314 0.0 0.0 0.00 0.00 0.00 95 999.4
20260905220033 8 339 0.0 0.0 0.00 0.00 0.00 95 999.4
20260905215537 8 348 0.0 0.0 0.00 0.00 0.00 95 999.3
20260905215025 8 328 0.0 0.0 0.00 0.00 0.00 95 999.3
20260905214537 8 342 0.0 0.0 0.00 0.00 0.00 95 999.3
20260905214022 8 342 1.6 0.0 0.00 0.00 0.00 95 999.2
20260905213529 8 10 3.2 0.0 0.00 0.00 0.00 95 999.2
20260905213045 8 339 3.2 0.0 0.00 0.00 0.00 95 999.2
20260905212524 8 332 1.6 0.0 0.00 0.00 0.00 95 999.2
20260905212021 8 30 0.0 0.0 0.00 0.00 0.00 94 999.2
20260905211533 8 355 1.6 0.0 0.00 0.00 0.00 94 999.2
20260905211033 8 336 1.6 0.0 0.00 0.00 0.00 94 998.9
20260905210537 8 342 1.6 0.0 0.00 0.00 0.00 94 998.9
20260905210053 8 348 1.6 0.0 0.00 0.00 0.00 94 998.9
20260905205533 8 332 3.2 0.0 0.00 0.00 0.05 94 998.8
20260905205038 8 14 4.8 0.0 0.00 0.00 0.05 94 998.8
20260905204521 8 5 3.2 0.0 0.00 0.00 0.05 94 998.8
20260905204059 8 26 3.2 0.0 0.00 0.00 0.05 94 998.7
20260905203522 8 40 3.2 0.0 0.00 0.00 0.05 94 998.7
20260905203032 8 346 1.6 0.0 0.00 0.00 0.05 94 998.7
20260905202535 8 335 0.0 0.0 0.00 0.00 0.05 94 998.6
20260905202021 8 342 0.0 0.0 0.00 0.00 0.05 94 998.6
20260905201538 8 328 0.0 0.0 0.00 0.00 0.05 94 998.6
20260905201023 8 335 0.0 0.0 0.00 0.00 0.05 94 998.4
20260905200525 8 311 0.0 0.0 0.00 0.00 0.05 94 998.4
20260905200046 8 336 0.0 0.0 0.00 0.00 0.05 93 998.4
20260905195529 8 336 0.0 0.0 0.00 0.00 0.05 93 998.3
20260905195037 8 325 0.0 0.0 0.00 0.00 0.05 93 998.3
20260905194557 8 314 0.0 0.0 0.00 0.00 0.05 92 998.3
20260905194039 8 353 0.0 0.0 0.00 0.00 0.05 92 998.2
20260905193524 8 334 1.6 0.0 0.00 0.00 0.05 92 998.2
20260905193104 8 305 1.6 0.0 0.00 0.00 0.05 92 998.2
20260905192523 8 338 0.0 0.0 0.00 0.00 0.05 92 998.1
20260905192030 8 318 1.6 0.0 0.00 0.00 0.05 92 998.1
20260905191536 8 342 1.6 0.0 0.00 0.00 0.05 92 998.1
20260905191031 8 267 1.6 0.0 0.00 0.00 0.05 91 998.1
20260905190536 8 336 1.6 0.0 0.00 0.00 0.05 91 998.1
20260905190053 9 334 1.6 0.0 0.00 0.00 0.05 91 998.1
20260905185558 9 341 1.6 0.0 0.00 0.00 0.05 91 997.8
20260905185024 9 301 0.0 0.0 0.00 0.00 0.05 91 997.8
20260905184523 9 342 0.0 0.0 0.00 0.00 0.05 91 997.8
20260905184036 9 349 0.0 0.0 0.00 0.00 0.05 91 997.8
20260905183519 9 342 1.6 0.0 0.00 0.00 0.05 91 997.8
20260905183027 9 356 3.2 0.0 0.00 0.00 0.05 91 997.8
20260905182543 9 342 3.2 0.0 0.00 0.00 0.05 90 997.7
20260905182031 9 335 3.2 0.0 0.00 0.00 0.05 90 997.7
20260905181528 9 338 1.6 0.0 0.00 0.00 0.05 90 997.7
20260905181034 9 9 1.6 0.0 0.00 0.00 0.05 89 997.7
20260905180520 9 360 3.2 0.0 0.00 0.00 0.05 89 997.7
20260905180032 9 349 3.2 0.0 0.00 0.00 0.05 89 997.6
20260905175559 9 350 3.2 0.0 0.00 0.00 0.05 89 997.5
20260905175022 9 310 3.2 0.0 0.00 0.00 0.05 89 997.5
20260905174539 9 324 1.6 0.0 0.00 0.00 0.05 89 997.5
20260905174040 9 359 3.2 0.0 0.00 0.00 0.05 89 997.2
20260905173523 9 308 3.2 0.0 0.00 0.00 0.05 88 997.2
20260905173037 9 341 3.2 0.0 0.00 0.00 0.05 88 997.2
20260905172520 9 342 3.2 0.0 0.00 0.00 0.05 88 997.1
20260905172026 10 355 3.2 0.0 0.00 0.00 0.05 88 997.2
20260905171545 10 355 4.8 0.0 0.00 0.00 0.05 88 997.2
20260905171027 10 332 3.2 0.0 0.00 0.00 0.05 88 996.9
20260905170535 10 349 3.2 0.0 0.00 0.00 0.05 88 996.9
20260905170026 10 339 1.6 0.0 0.00 0.00 0.05 87 996.9
20260905165533 10 342 3.2 0.0 0.00 0.00 0.05 87 996.7
20260905165048 10 342 1.6 0.0 0.00 0.00 0.05 87 996.7
20260905164534 10 44 4.8 0.0 0.00 0.00 0.05 86 996.7
20260905164036 10 342 9.7 0.0 0.00 0.00 0.05 86 996.6
20260905163522 10 358 8.0 0.0 0.00 0.00 0.05 86 996.6
20260905163039 10 19 4.8 0.0 0.00 0.00 0.05 87 996.6
20260905162521 10 355 6.4 0.0 0.00 0.00 0.05 87 996.5
20260905162056 10 7 9.7 0.0 0.00 0.00 0.05 87 996.5
20260905161537 10 342 8.0 0.0 0.00 0.00 0.05 87 996.5
20260905161023 10 353 4.8 0.0 0.00 0.00 0.05 88 996.3
20260905160527 10 6 4.8 0.0 0.00 0.00 0.05 88 996.3
20260905160026 10 353 4.8 0.0 0.00 0.00 0.05 88 996.2
20260905155530 11 329 6.4 0.0 0.00 0.00 0.05 87 996.1
20260905155037 11 342 6.4 0.0 0.00 0.00 0.05 86 996.1
20260905154552 11 342 8.0 0.0 0.00 0.00 0.05 85 996.1
20260905154033 11 342 9.7 0.0 0.00 0.00 0.05 84 995.9
20260905153523 11 342 8.0 0.0 0.00 0.00 0.05 83 995.9
20260905153027 11 334 9.7 0.0 0.00 0.00 0.05 80 995.9
20260905152539 11 13 9.7 0.0 0.00 0.00 0.05 79 995.7
20260905152025 11 23 8.0 0.0 0.00 0.00 0.05 80 995.7
20260905151558 11 302 6.4 0.0 0.00 0.00 0.05 80 995.7
20260905151020 11 342 8.0 0.0 0.00 0.00 0.05 80 995.6
20260905150520 11 33 9.7 0.0 0.00 0.00 0.05 81 995.6
20260905150028 11 341 8.0 0.0 0.00 0.00 0.05 81 995.6
20260905145524 12 345 8.0 0.0 0.00 0.00 0.05 81 995.4
20260905145030 12 34 9.7 0.0 0.00 0.00 0.05 81 995.4
20260905144548 12 342 9.7 0.0 0.00 0.00 0.05 82 995.4
20260905144031 12 360 9.7 0.0 0.00 0.00 0.05 82 995.2
20260905143553 12 339 8.0 0.0 0.00 0.00 0.05 82 995.2
20260905143036 12 334 8.0 0.0 0.00 0.00 0.05 82 995.2
20260905142538 12 339 8.0 0.0 0.00 0.00 0.05 82 995.1
20260905142019 12 98 8.0 0.0 0.00 0.00 0.05 82 995.1
20260905141529 12 342 8.0 0.0 0.00 0.00 0.05 82 995.1
20260905141055 12 19 9.7 0.0 0.00 0.00 0.05 82 995.0
20260905140527 12 13 9.7 0.0 0.00 0.00 0.05 82 995.0
20260905140058 12 16 8.0 0.0 0.00 0.00 0.05 81 995.0
20260905135548 12 294 9.7 0.0 0.00 0.00 0.05 80 994.7
20260905135027 12 339 9.7 0.0 0.00 0.00 0.05 80 994.7
20260905134543 12 343 9.7 0.0 0.00 0.00 0.05 79 994.7
20260905134021 12 9 9.7 0.0 0.00 0.00 0.05 77 994.5
20260905133525 12 22 9.7 0.0 0.00 0.00 0.05 80 994.5
20260905133043 12 13 9.7 0.0 0.00 0.00 0.05 79 994.5
20260905132528 12 24 9.7 0.0 0.00 0.00 0.05 79 994.5
20260905132028 12 356 9.7 0.0 0.00 0.00 0.05 80 994.5
20260905131547 12 342 8.0 0.0 0.00 0.00 0.05 81 994.5
20260905131031 12 307 8.0 0.0 0.00 0.00 0.05 82 994.3
20260905130535 12 328 6.4 0.0 0.00 0.00 0.05 82 994.3
20260905130048 12 41 6.4 0.0 0.00 0.00 0.05 83 994.3
20260905125529 12 342 9.7 0.0 0.00 0.00 0.05 82 994.0
20260905125036 13 22 9.7 0.0 0.00 0.00 0.05 80 994.1
20260905124550 13 16 6.4 0.0 0.00 0.00 0.05 79 994.1
20260905124054 13 22 4.8 0.0 0.00 0.00 0.05 78 993.9
20260905123532 13 356 6.4 0.0 0.00 0.00 0.05 81 993.9
20260905123038 13 342 8.0 0.0 0.00 0.00 0.05 80 993.9
20260905122520 13 342 9.7 0.0 0.00 0.00 0.05 79 993.6
20260905122036 13 335 9.7 0.0 0.00 0.00 0.05 79 993.6
20260905121521 14 47 9.7 0.0 0.00 0.00 0.05 79 993.6
20260905121027 14 13 6.4 0.0 0.00 0.00 0.05 80 993.5
20260905120527 13 37 4.8 0.0 0.00 0.00 0.05 81 993.5
20260905120023 13 356 6.4 0.0 0.00 0.00 0.05 80 993.5
20260905115523 14 339 4.8 0.0 0.00 0.00 0.05 80 993.4
20260905115043 14 322 6.4 0.0 0.00 0.00 0.05 80 993.4
20260905114525 13 20 4.8 0.0 0.00 0.00 0.05 82 993.4
20260905114027 13 334 4.8 0.0 0.00 0.00 0.05 81 993.3
20260905113531 13 342 6.4 0.0 0.00 0.00 0.05 80 993.3
20260905113049 13 359 8.0 0.0 0.00 0.00 0.05 80 993.3
20260905112529 14 3 6.4 0.0 0.00 0.00 0.05 81 993.0
20260905112056 14 336 4.8 0.0 0.00 0.00 0.05 82 993.0
20260905111529 14 16 4.8 0.0 0.00 0.00 0.05 85 993.0
20260905111055 14 23 6.4 0.0 0.00 0.00 0.05 82 992.9
20260905110543 14 19 6.4 0.0 0.00 0.00 0.05 82 992.9
20260905110024 15 27 6.4 0.0 0.00 0.00 0.05 81 992.9
20260905105525 14 36 6.4 0.0 0.00 0.00 0.03 80 992.8
20260905105044 14 14 6.4 0.0 0.00 0.00 0.03 81 992.8
20260905104559 13 26 4.8 0.0 0.00 0.00 0.03 82 992.8
20260905104022 13 26 3.2 0.0 0.00 0.00 0.03 83 992.7
20260905103527 13 29 9.7 0.0 0.00 0.00 0.03 83 992.7
20260905103032 13 3 11.3 0.0 0.00 0.00 0.03 82 992.7
20260905102543 14 24 9.7 0.0 0.00 0.00 0.03 83 992.5
20260905102024 14 13 8.0 0.0 0.00 0.00 0.03 82 992.5
20260905101537 14 352 9.7 0.0 0.00 0.00 0.03 80 992.5
20260905101036 14 24 11.3 0.0 0.00 0.00 0.03 83 992.4
20260905100551 14 27 12.9 0.0 0.00 0.00 0.03 83 992.4
20260905100029 13 10 12.9 0.0 0.00 0.00 0.03 83 992.4
20260905095540 13 10 12.9 0.0 0.00 0.00 0.03 87 992.2
20260905095039 13 23 12.9 0.0 0.00 0.00 0.03 87 992.1
20260905094544 13 332 11.3 0.0 0.00 0.00 0.03 88 992.1
20260905094035 13 17 8.0 0.0 0.00 0.00 0.03 90 992.0
20260905093536 13 341 4.8 0.0 0.00 0.00 0.03 92 992.0
20260905093053 12 355 6.4 0.0 0.00 0.00 0.03 92 992.0
20260905092536 12 29 4.8 0.0 0.00 0.00 0.03 92 991.9
20260905092025 12 342 3.2 0.0 0.00 0.00 0.03 93 991.9
20260905091554 12 332 4.8 0.0 0.00 0.00 0.03 93 991.9
20260905091027 12 342 8.0 0.0 0.00 0.00 0.03 92 991.8
20260905090535 12 353 8.0 0.0 0.00 0.00 0.03 93 991.8
20260905090053 12 24 8.0 0.0 0.00 0.00 0.03 95 991.8